星链-2447 (STARLINK-2447 )

导读 | 星芒AI

STARLINK-2447 是 SpaceX Starlink 卫星互联网项目中的第 2447 颗卫星,属于低轨通信卫星群的一部分。该卫星旨在为全球用户提供高速、低延迟的互联网服务,尤其关注网络覆盖不足的地区。它运行在约 550 公里的轨道高度,采用先进的通信技术,支持全球范围内的宽带连接。STARLINK-2447 的发射和运行有助于增强 Starlink 网络的稳定性和容量,推动全球互联网普及。

基本信息
目录编号:
48110
目录名称:
STARLINK-2447
国际标识:
2021-027U
轨道中心:
EARTH
卫星名称:
星链-2447
卫星全名:
星链-2447 (STARLINK-2447 )
卫星状态:
已陨落 最后检测时间 2025-03-30
发射日期:
2021-04-07 UTC
国别 :
美国 (US)
星等 :
--
轨道信息
数据来源 国际轨道数据
星历时间: 2025-03-30T05:16:07+0800
轨道信息已过期214天
半长轴: 6568.779km
偏心率: 0.0009794
轨道倾角: 53.036°
近地点辐角 301.763°
升交点赤经 234.124°
平近点角 187.446°
近地点: 184.21km
远地点: 197.078km
周期: 88.305分钟
每日圈数: 16.307067
详细信息
固有亮度:
5
最大亮度:
2.5
卫星平台:
Starlink V1.0
覆盖范围:
全球
运营商:
太空探索技术公司
运营商所在国:
美国
制造商(研发单位):
太空探索技术公司
制造商所在国:
美国
使用方式:
暂无
卫星简介
星链(Starlink)计划是由太空探索技术公司(SpaceX)提出的一个巨型低轨卫星互联网星座项目,计划在2019年至2024年间在太空搭建由约1.2万颗卫星组成的“星链”网络,其中1584颗将部署在地球上空550千米处的近地轨道,并从2020年开始工作。该卫星仍在工作。